Weather History for Pipestone, MN

Change the Weather History Date:

Saturday, March 23, 2013

  Actual Average Record
Temperature  
Mean Temperature 26 °F -  
Max Temperature 32 °F 41 °F 73 °F (2003)
Min Temperature 21 °F 25 °F 6 °F (2002)
Degree Days  
Heating Degree Days 38    
Moisture  
Dew Point 20 °F    
Average Humidity 78    
Maximum Humidity 93    
Minimum Humidity 60    
Precipitation  
Precipitation 0.00 in - - ()
Sea Level Pressure  
Sea Level Pressure 30.09 in    
Wind  
Wind Speed 4 mph (NNE)    
Max Wind Speed 15 mph    
Max Gust Speed 21 mph    
Visibility 10 miles    
Events Snow    
Averages and records for this station are not official NWS values.
T = Trace of Precipitation, MM = Missing Value Source: NWS Daily Summary

Daily Weather History Graph

Daily Weather History Graph

Search for Another Location

Airport:

Trip Planner

Search our weather history database for the weather conditions in past years. The results will help you decide how hot, cold, wet, or windy it might be!

Date:

Astronomy

Mar. 23, 2013 Rise Set
Actual Time 7:22 AM CDT 7:41 PM CDT
Civil Twilight 6:53 AM CDT 8:10 PM CDT
Nautical Twilight 6:19 AM CDT 8:44 PM CDT
Astronomical Twilight 5:44 AM CDT 9:19 PM CDT
Moon 4:03 PM CDT 5:06 AM CDT
Length of Visible Light 13h 16m
Length of Day
12h 19m
Waxing Gibbous, 85% of the Moon is Illuminated
Mar 23
Waxing Gibbous
Mar 27
Full
Apr 2
Last Quarter
Apr 10
New
Apr 18
First Quarter

Hourly Weather History & Observations

Time (CDT) Temp. Windchill Dew Point Humidity Pressure Visibility Wind Dir Wind Speed Gust Speed Precip Events Conditions
12:13 AM 23.0 °F - 19.4 °F 86% 30.05 in 10.0 mi Calm Calm - N/A   Clear
12:33 AM 23.0 °F - 19.4 °F 86% 30.06 in 10.0 mi Calm Calm - N/A   Scattered Clouds
12:53 AM 23.0 °F - 19.4 °F 86% 30.07 in 10.0 mi Calm Calm - N/A   Mostly Cloudy
1:13 AM 24.8 °F 20.5 °F 19.4 °F 80% 30.05 in 10.0 mi ENE 3.5 mph - N/A   Overcast
1:33 AM 24.8 °F 19.1 °F 19.4 °F 80% 30.04 in 10.0 mi East 4.6 mph - N/A   Overcast
1:53 AM 24.8 °F - 19.4 °F 80% 30.06 in 10.0 mi Calm Calm - N/A   Overcast
2:13 AM 24.8 °F 20.5 °F 19.4 °F 80% 30.06 in 10.0 mi East 3.5 mph - N/A   Overcast
2:33 AM 24.8 °F 19.1 °F 19.4 °F 80% 30.06 in 10.0 mi East 4.6 mph - N/A   Overcast
2:53 AM 24.8 °F - 19.4 °F 80% 30.08 in 10.0 mi Calm Calm - N/A   Overcast
3:33 AM 24.8 °F - 19.4 °F 80% 30.08 in 10.0 mi Calm Calm - N/A Snow Light Snow
3:53 AM 24.8 °F 20.5 °F 19.4 °F 80% 30.07 in 10.0 mi East 3.5 mph - N/A Snow Light Snow
4:13 AM 24.8 °F - 19.4 °F 80% 30.07 in 10.0 mi Calm Calm - N/A Snow Light Snow
4:33 AM 24.8 °F 19.1 °F 19.4 °F 80% 30.06 in 10.0 mi ENE 4.6 mph - N/A   Overcast
4:53 AM 24.8 °F 19.1 °F 19.4 °F 80% 30.06 in 10.0 mi ENE 4.6 mph - N/A   Overcast
5:13 AM 24.8 °F - 21.2 °F 86% 30.05 in 10.0 mi Calm Calm - N/A   Overcast
5:33 AM 24.8 °F - 21.2 °F 86% 30.05 in 10.0 mi Calm Calm - N/A   Overcast
5:53 AM 24.8 °F 20.5 °F 21.2 °F 86% 30.07 in 10.0 mi NNE 3.5 mph - N/A   Overcast
6:13 AM 24.8 °F 20.5 °F 21.2 °F 86% 30.07 in 10.0 mi NE 3.5 mph - N/A   Overcast
6:33 AM 24.8 °F 20.5 °F 21.2 °F 86% 30.08 in 10.0 mi NE 3.5 mph - N/A   Overcast
6:53 AM 24.8 °F - 21.2 °F 86% 30.09 in 10.0 mi Calm Calm - N/A   Overcast
7:13 AM 24.8 °F - 21.2 °F 86% 30.10 in 7.0 mi Calm Calm - N/A Snow Light Snow
7:33 AM 23.0 °F 18.4 °F 21.2 °F 93% 30.10 in 10.0 mi NE 3.5 mph - N/A Snow Light Snow
7:53 AM 23.0 °F 17.0 °F 19.4 °F 86% 30.10 in 7.0 mi NE 4.6 mph - N/A Snow Light Snow
8:13 AM 23.0 °F 15.8 °F 19.4 °F 86% 30.10 in 7.0 mi NE 5.8 mph - N/A Snow Light Snow
8:33 AM 23.0 °F 15.8 °F 19.4 °F 86% 30.11 in 7.0 mi NE 5.8 mph - N/A Snow Light Snow
8:53 AM 21.2 °F 14.9 °F 19.4 °F 93% 30.11 in 5.0 mi ENE 4.6 mph - N/A Snow Light Snow
9:13 AM 23.0 °F 14.7 °F 19.4 °F 86% 30.10 in 7.0 mi NE 6.9 mph - N/A Snow Light Snow
9:33 AM 32.0 °F 24.8 °F 19.4 °F 60% 30.10 in 10.0 mi NE 8.1 mph - N/A   Unknown
9:53 AM 32.0 °F 25.6 °F 19.4 °F 60% 30.11 in 10.0 mi NE 6.9 mph - N/A   Unknown
10:06 AM 23.0 °F 14.7 °F 19.4 °F 86% 30.11 in 10.0 mi NE 6.9 mph - N/A   Overcast
10:15 AM 24.8 °F 17.9 °F 19.4 °F 80% 30.11 in 10.0 mi NE 5.8 mph - N/A   Overcast
10:53 AM 26.6 °F 20.0 °F 19.4 °F 74% 30.12 in 10.0 mi NNE 5.8 mph - N/A   Unknown
11:13 AM 26.6 °F - 19.4 °F 74% 30.12 in - Calm Calm - N/A   Scattered Clouds
11:33 AM 26.6 °F 21.2 °F 19.4 °F 74% 30.12 in 10.0 mi NNE 4.6 mph - N/A   Clear
11:53 AM 26.6 °F 20.0 °F 19.4 °F 74% 30.11 in 10.0 mi NNE 5.8 mph - N/A   Unknown
12:13 PM 26.6 °F 22.6 °F 19.4 °F 74% 30.11 in 10.0 mi NNE 3.5 mph - N/A   Clear
12:33 PM 28.4 °F 23.3 °F 19.4 °F 69% 30.11 in 10.0 mi NE 4.6 mph - N/A   Clear
12:53 PM 28.4 °F 23.3 °F 19.4 °F 69% 30.10 in 10.0 mi NNE 4.6 mph - N/A   Clear
1:13 PM 28.4 °F 24.6 °F 21.2 °F 74% 30.10 in 10.0 mi NE 3.5 mph - N/A   Scattered Clouds
1:34 PM 28.4 °F 23.3 °F 19.4 °F 69% 30.10 in 10.0 mi NNE 4.6 mph - N/A   Mostly Cloudy
1:53 PM 28.4 °F - 19.4 °F 69% 30.10 in 10.0 mi Calm Calm - N/A   Scattered Clouds
2:13 PM 28.4 °F 24.6 °F 21.2 °F 74% 30.09 in 10.0 mi NNE 3.5 mph - N/A   Mostly Cloudy
2:34 PM 28.4 °F 24.6 °F 21.2 °F 74% 30.09 in 10.0 mi NNE 3.5 mph - N/A   Mostly Cloudy
2:53 PM 30.2 °F 25.4 °F 21.2 °F 69% 30.08 in 10.0 mi North 4.6 mph - N/A   Overcast
3:13 PM 28.4 °F 23.3 °F 21.2 °F 74% 30.08 in 10.0 mi NNE 4.6 mph - N/A   Overcast
3:33 PM 28.4 °F - 21.2 °F 74% 30.09 in 10.0 mi Calm Calm - N/A   Overcast
3:53 PM 28.4 °F 23.3 °F 21.2 °F 74% 30.09 in 10.0 mi North 4.6 mph - N/A   Overcast
4:13 PM 28.4 °F 21.2 °F 21.2 °F 74% 30.09 in 10.0 mi North 6.9 mph - N/A   Overcast
4:33 PM 28.4 °F 22.2 °F 21.2 °F 74% 30.09 in 10.0 mi NNE 5.8 mph - N/A   Overcast
4:54 PM 28.4 °F 20.4 °F 21.2 °F 74% 30.09 in 10.0 mi North 8.1 mph - N/A   Overcast
5:13 PM 28.4 °F 22.2 °F 21.2 °F 74% 30.09 in 10.0 mi North 5.8 mph - N/A   Overcast
5:33 PM 28.4 °F 21.2 °F 21.2 °F 74% 30.09 in 10.0 mi North 6.9 mph - N/A   Mostly Cloudy
5:54 PM 28.4 °F 20.4 °F 21.2 °F 74% 30.09 in 10.0 mi North 8.1 mph - N/A   Mostly Cloudy
6:13 PM 28.4 °F 18.5 °F 21.2 °F 74% 30.09 in 10.0 mi North 11.5 mph - N/A   Scattered Clouds
6:33 PM 28.4 °F 19.7 °F 21.2 °F 74% 30.09 in 10.0 mi North 9.2 mph - N/A   Scattered Clouds
6:54 PM 26.6 °F 16.8 °F 21.2 °F 80% 30.10 in 10.0 mi North 10.4 mph 16.1 mph N/A   Scattered Clouds
7:13 PM 26.6 °F 16.8 °F 21.2 °F 80% 30.10 in 10.0 mi North 10.4 mph 17.3 mph N/A   Scattered Clouds
7:34 PM 26.6 °F 17.5 °F 21.2 °F 80% 30.10 in 10.0 mi North 9.2 mph 17.3 mph N/A   Scattered Clouds
7:53 PM 26.6 °F 14.7 °F 19.4 °F 74% 30.10 in 10.0 mi North 15.0 mph 20.7 mph N/A   Scattered Clouds
8:13 PM 26.6 °F 16.8 °F 19.4 °F 74% 30.10 in 10.0 mi North 10.4 mph 19.6 mph N/A   Scattered Clouds
8:54 PM 26.6 °F 16.8 °F 19.4 °F 74% 30.11 in 10.0 mi North 10.4 mph - N/A   Scattered Clouds
9:13 PM 24.8 °F 14.0 °F 19.4 °F 80% 30.12 in 10.0 mi North 11.5 mph 20.7 mph N/A   Scattered Clouds
9:33 PM 24.8 °F 12.9 °F 19.4 °F 80% 30.12 in 10.0 mi North 13.8 mph 20.7 mph N/A   Overcast
9:54 PM 24.8 °F 14.6 °F 19.4 °F 80% 30.12 in 10.0 mi North 10.4 mph - N/A   Overcast
10:13 PM 24.8 °F 15.3 °F 19.4 °F 80% 30.12 in 10.0 mi North 9.2 mph 18.4 mph N/A   Overcast
10:34 PM 24.8 °F 16.1 °F 19.4 °F 80% 30.12 in 10.0 mi North 8.1 mph - N/A   Overcast
10:53 PM 24.8 °F 14.6 °F 19.4 °F 80% 30.12 in 10.0 mi North 10.4 mph 16.1 mph N/A   Overcast
11:13 PM 24.8 °F 14.0 °F 19.4 °F 80% 30.12 in 10.0 mi North 11.5 mph - N/A   Overcast
11:34 PM 24.8 °F 13.4 °F 19.4 °F 80% 30.12 in 10.0 mi North 12.7 mph - N/A   Overcast
11:53 PM 24.8 °F 16.1 °F 19.4 °F 80% 30.12 in 10.0 mi North 8.1 mph - N/A   Overcast